Weather reports worldwide

Advertisment
Wakefield, va, United States of America (2074226): temperature & dewpoint: 12.09.2019 00:00:00 - 18.09.2019 00:00:00 (EDT)Wakefield, va, United States of America (2074226): wind speed: 12.09.2019 00:00:00 - 18.09.2019 00:00:00 (EDT)Wakefield, va, United States of America (2074226): wind direction: 12.09.2019 00:00:00 - 18.09.2019 00:00:00 (EDT)Wakefield, va, United States of America (2074226): reduced air pressure: 12.09.2019 00:00:00 - 18.09.2019 00:00:00 (EDT)Wakefield, va, United States of America (2074226): visibility: 12.09.2019 00:00:00 - 18.09.2019 00:00:00 (EDT)Wakefield, va, United States of America (2074226): precipitation: 12.09.2019 00:00:00 - 18.09.2019 00:00:00 (EDT)
Date & Time tt [°C] td [°C] ff [km/h] ff [kn] dd ppp [hPa] vv [km] rr [mm]
18.09.2019 00:00:00 - - - - - - - -
17.09.2019 23:00:00 17,2 14,4 0 0 N 1018,9 16 -
17.09.2019 22:00:00 19,4 15,0 0 0 N 1018,9 16 -
17.09.2019 21:00:00 20,6 16,1 0 0 N 1018,6 16 -
17.09.2019 20:00:00 21,7 17,2 5 3 - 1018,2 16 -
17.09.2019 19:00:00 21,7 18,3 5 3 NE 1018,0 16 0,0
17.09.2019 18:00:00 23,9 17,8 8 4 - 1017,6 16 -
17.09.2019 17:00:00 24,4 17,2 11 6 ENE 1017,1 10 -
17.09.2019 16:00:00 24,4 17,2 8 4 - 1017,1 16 -
17.09.2019 15:00:00 25,6 18,3 11 6 ENE 1017,0 16 -
17.09.2019 14:00:00 25,6 18,9 11 6 E 1017,2 16 0,5
17.09.2019 13:00:00 23,9 20,6 5 3 - 1017,4 15 0,5
17.09.2019 12:00:00 27,2 18,9 11 6 - 1017,3 16 -
17.09.2019 11:00:00 26,7 19,4 13 7 ENE 1017,1 16 -
17.09.2019 10:00:00 25,0 21,1 8 4 - 1016,8 16 -
17.09.2019 09:00:00 23,3 21,1 0 0 N 1016,6 16 -
17.09.2019 08:00:00 21,1 20,0 0 0 N 1016,2 11 -
17.09.2019 07:00:00 19,4 18,3 0 0 N 1015,4 11 -
17.09.2019 06:00:00 18,9 17,8 0 0 N 1014,9 2,4 -
17.09.2019 05:00:00 19,4 18,3 0 0 N 1014,5 8 -
17.09.2019 04:00:00 18,9 17,2 0 0 N 1014,7 8 -
17.09.2019 03:00:00 18,9 17,8 0 0 N 1014,6 10 -
17.09.2019 02:00:00 19,4 18,3 0 0 N 1015,1 6 -
17.09.2019 01:00:00 20,0 18,9 0 0 N 1015,0 11 -
17.09.2019 00:00:00 20,6 18,9 0 0 N 1015,0 16 -
16.09.2019 23:00:00 21,7 18,9 0 0 N 1015,2 16 -
16.09.2019 22:00:00 22,8 18,9 0 0 N 1015,3 16 -
16.09.2019 21:00:00 23,3 18,3 0 0 N 1014,9 16 -
16.09.2019 20:00:00 23,3 18,9 0 0 N 1014,9 16 -
16.09.2019 19:00:00 27,2 18,9 8 4 E 1014,6 16 -
16.09.2019 18:00:00 29,4 20,0 9 5 ESE 1014,3 16 -
16.09.2019 17:00:00 30,6 18,9 8 4 E 1014,3 16 -
16.09.2019 16:00:00 31,1 18,3 5 3 - 1014,8 16 -
16.09.2019 15:00:00 30,6 18,9 0 0 N 1015,7 16 -
16.09.2019 14:00:00 30,6 19,4 5 3 - 1016,4 16 -
16.09.2019 13:00:00 30,0 20,0 0 0 N 1017,2 16 -
16.09.2019 12:00:00 28,9 20,0 5 3 ENE 1017,9 16 -
16.09.2019 11:00:00 27,2 21,1 0 0 N 1018,6 16 -
16.09.2019 10:00:00 26,1 21,1 5 3 N 1018,8 16 -
16.09.2019 09:00:00 23,9 21,1 0 0 N 1018,8 16 -
16.09.2019 08:00:00 21,1 19,4 5 3 - 1018,5 13 -
16.09.2019 07:00:00 18,3 17,2 0 0 N 1018,3 0,8 -
16.09.2019 06:00:00 18,9 17,8 0 0 N 1018,0 13 -
16.09.2019 05:00:00 18,9 17,8 0 0 N 1018,1 15 -
16.09.2019 04:00:00 19,4 18,3 0 0 N 1018,2 10 -
16.09.2019 03:00:00 19,4 18,3 0 0 N 1018,3 13 -
16.09.2019 02:00:00 20,0 18,9 0 0 N 1018,3 15 -
16.09.2019 01:00:00 20,6 19,4 0 0 N 1018,9 13 -
16.09.2019 00:00:00 21,1 19,4 0 0 N 1018,9 11 -
15.09.2019 23:00:00 21,1 20,0 0 0 N 1019,0 15 -
15.09.2019 22:00:00 22,2 20,6 0 0 N 1019,4 16 -
15.09.2019 21:00:00 22,2 20,6 0 0 N 1019,1 16 -
15.09.2019 20:00:00 23,9 21,7 0 0 N 1018,8 16 -
15.09.2019 19:00:00 26,7 21,1 0 0 N 1018,6 16 -
15.09.2019 18:00:00 27,8 21,7 8 4 - 1018,6 16 -
15.09.2019 17:00:00 28,3 21,7 8 4 E 1018,5 16 -
15.09.2019 16:00:00 30,6 21,1 8 4 - 1018,6 16 -
15.09.2019 15:00:00 29,4 21,7 5 3 NNW 1019,0 16 0,0
15.09.2019 14:00:00 29,4 21,7 5 3 - 1020,0 16 -
15.09.2019 13:00:00 28,9 21,1 0 0 N 1020,4 16 -
15.09.2019 12:00:00 28,9 21,7 8 4 - 1020,7 16 -
15.09.2019 11:00:00 28,3 21,7 0 0 N 1021,1 16 -
15.09.2019 10:00:00 25,6 22,2 5 3 S 1021,6 16 -
15.09.2019 09:00:00 23,9 22,2 0 0 N 1021,7 16 -
15.09.2019 08:00:00 22,2 20,6 0 0 N 1021,5 13 -
15.09.2019 07:00:00 20,6 19,4 0 0 N 1021,0 3,2 -
15.09.2019 06:00:00 21,1 20,0 0 0 N 1020,8 11 -
15.09.2019 05:00:00 21,7 20,6 0 0 N 1020,9 10 -
15.09.2019 04:00:00 21,7 20,6 0 0 N 1020,9 11 -
15.09.2019 03:00:00 21,7 20,6 0 0 N 1021,2 11 -
15.09.2019 02:00:00 22,2 20,6 0 0 N 1021,7 15 -
15.09.2019 01:00:00 22,2 21,1 0 0 N 1021,6 15 -
15.09.2019 00:00:00 22,8 21,1 0 0 N 1021,6 16 -
14.09.2019 23:00:00 22,8 20,6 0 0 N 1022,2 16 -
14.09.2019 22:00:00 23,9 21,1 0 0 N 1022,1 16 -
14.09.2019 21:00:00 24,4 21,1 0 0 N 1022,0 16 -
14.09.2019 20:00:00 25,0 21,7 0 0 N 1021,9 16 -
14.09.2019 19:00:00 27,2 21,1 8 4 ESE 1021,8 16 -
14.09.2019 18:00:00 28,9 20,6 5 3 E 1021,5 16 -
14.09.2019 17:00:00 30,0 21,7 5 3 - 1022,0 16 -
14.09.2019 16:00:00 29,4 19,4 8 4 - 1022,2 16 -
14.09.2019 15:00:00 30,0 20,0 5 3 NE 1023,0 16 -
14.09.2019 14:00:00 28,9 20,0 9 5 ESE 1023,6 16 -
14.09.2019 13:00:00 27,8 18,9 0 0 N 1024,6 16 -
14.09.2019 12:00:00 27,8 19,4 5 3 NE 1025,2 16 -
14.09.2019 11:00:00 26,1 20,6 8 4 E 1025,6 16 -
14.09.2019 10:00:00 24,4 20,6 0 0 N 1026,0 16 -
14.09.2019 09:00:00 22,8 20,0 0 0 N 1025,8 16 -
14.09.2019 08:00:00 21,7 19,4 0 0 N 1025,6 16 -
14.09.2019 07:00:00 21,1 18,9 0 0 N 1025,1 16 -
14.09.2019 06:00:00 21,1 18,9 0 0 N 1024,8 16 -
14.09.2019 05:00:00 21,1 18,9 0 0 N 1024,9 16 -
14.09.2019 04:00:00 21,1 18,3 0 0 N 1025,0 16 -
14.09.2019 03:00:00 21,1 18,3 0 0 N 1025,1 16 -
14.09.2019 02:00:00 21,1 17,8 0 0 N 1025,5 16 -
14.09.2019 01:00:00 21,1 17,8 8 4 NE 1025,7 16 -
14.09.2019 00:00:00 21,7 17,8 0 0 N 1026,4 16 -
13.09.2019 23:00:00 21,7 17,8 0 0 N 1026,9 16 -
13.09.2019 22:00:00 22,2 17,8 5 3 - 1027,0 16 -
13.09.2019 21:00:00 22,2 18,3 5 3 - 1026,7 16 -
13.09.2019 20:00:00 21,7 18,3 0 0 N 1026,2 16 -
13.09.2019 19:00:00 22,8 17,8 0 0 N 1026,0 16 -
13.09.2019 18:00:00 23,3 18,3 8 4 E 1026,4 16 -
13.09.2019 17:00:00 23,9 18,3 11 6 - 1026,1 16 -
13.09.2019 16:00:00 23,9 18,9 11 6 - 1026,0 16 -
13.09.2019 15:00:00 24,4 19,4 13 7 ENE 1026,2 16 -
13.09.2019 14:00:00 22,8 20,0 11 6 - 1026,6 16 0,0
13.09.2019 13:00:00 22,8 20,6 9 5 - 1026,5 16 0,0
13.09.2019 12:00:00 23,9 20,0 15 8 E 1026,0 16 0,0
13.09.2019 11:00:00 24,4 20,6 11 6 - 1025,5 16 0,0
13.09.2019 10:00:00 23,9 20,6 11 6 - 1024,9 16 0,0
13.09.2019 09:00:00 23,9 21,7 11 6 E 1024,0 16 -
13.09.2019 08:00:00 23,9 21,7 15 8 NE 1023,2 16 -
13.09.2019 07:00:00 23,9 22,2 8 4 NE 1022,5 10 -
13.09.2019 06:00:00 23,3 21,7 0 0 N 1022,0 10 -
13.09.2019 05:00:00 22,8 21,1 5 3 NE 1021,4 11 -
13.09.2019 04:00:00 22,8 21,1 0 0 N 1020,7 10 -
13.09.2019 03:00:00 22,2 21,1 0 0 N 1020,8 11 -
13.09.2019 02:00:00 22,2 20,6 0 0 N 1020,6 16 0,0
13.09.2019 01:00:00 22,2 20,6 15 8 NNE 1019,9 16 0,0
13.09.2019 00:00:00 22,2 20,6 0 0 N 1019,7 4,8 2,3
12.09.2019 23:00:00 25,0 23,3 0 0 N 1018,5 10 -
12.09.2019 22:00:00 26,1 23,3 0 0 N 1018,7 13 -
12.09.2019 21:00:00 26,1 23,9 0 0 N 1018,2 13 -
12.09.2019 20:00:00 28,9 23,3 0 0 N 1017,7 16 -
12.09.2019 19:00:00 30,0 24,4 0 0 N 1017,3 16 -
12.09.2019 18:00:00 33,3 21,7 5 3 S 1016,9 16 -
12.09.2019 17:00:00 33,9 21,7 5 3 E 1017,1 16 -
12.09.2019 16:00:00 34,4 21,7 0 0 N 1017,3 16 -
12.09.2019 15:00:00 34,4 21,1 9 5 NNW 1017,6 16 -
12.09.2019 14:00:00 33,9 21,7 8 4 - 1018,3 16 -
12.09.2019 13:00:00 32,8 22,2 0 0 N 1018,9 16 -
12.09.2019 12:00:00 31,7 22,2 5 3 - 1019,2 16 -
12.09.2019 11:00:00 30,6 22,2 5 3 - 1019,5 16 -
12.09.2019 10:00:00 28,3 21,1 8 4 WSW 1019,7 16 -
12.09.2019 09:00:00 26,1 21,7 5 3 W 1019,4 16 -
12.09.2019 08:00:00 22,8 21,1 8 4 SW 1019,5 10 -
12.09.2019 07:00:00 22,2 20,6 0 0 N 1018,9 8 -
12.09.2019 06:00:00 22,2 20,6 0 0 N 1018,8 13 -
12.09.2019 05:00:00 22,8 20,6 0 0 N 1018,4 15 -
12.09.2019 04:00:00 23,3 20,6 8 4 SSW 1018,2 16 -
12.09.2019 03:00:00 23,9 21,1 8 4 SSW 1018,4 16 -
12.09.2019 02:00:00 23,9 21,1 5 3 S 1019,0 16 -
12.09.2019 01:00:00 24,4 21,1 5 3 SSW 1019,8 16 -
12.09.2019 00:00:00 25,0 21,1 0 0 N 1019,6 16 -

tt = temperature
td = dewpoint
ff = wind speed
dd = wind direction
ppp = reduced air pressure
vv = visibility
rr = precipitation

Next stations